View Sortable Currents For Network
ASOSCoCoRaHSCOOPCellular COOPDCPISU Soil Moisture
OtherSCANMy FavoritesBy StateRWISRWIS Surface
RWIS TrafficRWIS SoilBy NWS WFOUSCRN

Sorted by: Valid. The number of observations missing for this month is shown in parenthesis.

Add: SiteID: Station Name: County: Valid: Hydro
24hour Precip Month Precip Snowfall Ratio Snow Depth
IA-BH-26 Waterloo 6.7 E Black Hawk06:00 PM00.10
IA-BC-9 Winthrop 5.6 NNE Buchanan09:00 AM00.160
IA-JN-16 Anamosa 0.6 ESE Jones08:51 AM000
IA-CY-6 IA-CY-6 Clay08:38 AM00.230
IA-SR-49 IA-SR-49 Story08:30 AM00.080
IA-WH-1 Decorah 7.9 ENE Winneshiek08:15 AM00.420
IA-FM-1 Sidney 5.1 NNE Fremont08:00 AM000
IA-LE-19 IA-LE-19 Lee08:00 AM000
IA-SX-13 Orange City 0.8 W Sioux08:00 AM00.050
IA-BH-17 Gilbertville 1.0 NW Black Hawk08:00 AM00.050
IA-LS-2 Morning Sun 1.7 E Louisa08:00 AM00.080
IA-DK-6 Lake Park 0.2 N Dickinson08:00 AM00.33 (1)0
IA-SR-29 Ames 2.5 W Story08:00 AM00.190
IA-JN-10 Center Junction 2.6 W Jones08:00 AM00.30
IA-PT-13 Council Bluffs 2.1 SSE Pottawattamie08:00 AM00.080
IA-JH-20 Coralville 1.4 S Johnson08:00 AM00.2200
IA-PC-8 Fonda 4.5 NNW Pocahontas08:00 AM00.150
IA-JH-27 North Liberty 0.7 SSW Johnson08:00 AM00.180
IA-DV-11 Milton 4.8 SSW Davis08:00 AM00.020
IA-DV-13 Drakesville 7.4 NNW Davis08:00 AM00.060
IA-SX-9 Orange City 0.4 WNW Sioux08:00 AM00.180
IA-LC-12 Chariton 2.0 WSW Lucas08:00 AM000
IA-PK-121 Pleasant Hill 3.2 E Polk08:00 AM00.380
IA-DC-6 IA-DC-6 Decatur08:00 AM00.180
IA-LE-20 Fort Madison 4.5 NNW Lee08:00 AM00 (1)0
IA-IA-21 IA-IA-21 Iowa08:00 AM00.120
IA-DL-38 IA-DL-38 Dallas08:00 AM00.04 (1)0
IA-LN-63 IA-LN-63 Linn08:00 AM00.220
IA-BH-6 Waterloo 1.8 SSE Black Hawk07:30 AM00.0500
IA-DL-31 Dallas Center 1.5 E Dallas07:30 AM00.40
IA-IA-2 Marengo 2.6 SSW Iowa07:00 AM00.140
IA-DV-14 Drakesville 4.7 WNW Davis07:00 AM000
IA-JH-1 Solon 0.3 ESE Johnson07:00 AM00.180
IA-DW-10 Dundee 1.4 NNE Delaware07:00 AM00.130
IA-ST-37 Davenport 0.9 WNW Scott07:00 AM00.180
IA-BT-12 Fairfax 4.0 NW Benton07:00 AM00.2100
IA-MT-1 Osage 4.7 E Mitchell07:00 AM00.120
IA-PK-97 Ankeny 1.5 NNE Polk07:00 AM00.2600
IA-LN-49 Cedar Rapids 2.1 NW Linn07:00 AM00.230
IA-DK-12 IA-DK-12 Dickinson07:00 AM00.250
IA-CL-3 Murray 0.5 N Clarke07:00 AM00.0800
IA-PK-37 Windsor Heights 0.8 SE Polk07:00 AM00.5100
IA-SR-19 Gilbert 0.2 W Story07:00 AM00.10
IA-FY-3 Waucoma 3.2 S Fayette07:00 AM00.510
IA-SR-2 Ames 1.5 NNE Story07:00 AM00.150
IA-CL-4 Murray 1.7 W Clarke07:00 AM00.0700
IA-SH-6 Kirkman 1.0 SE Shelby07:00 AM00.130
IA-AL-5 Lansing 4.1 NW Allamakee07:00 AM00.560
IA-AL-6 Postville 5.5 NE Allamakee07:00 AM00.760
IA-LS-5 Wapello 5.4 SE Louisa07:00 AM00.20
IA-MC-21 Nichols 2.5 NNW Muscatine07:00 AM00.260
IA-PK-3 Des Moines 4.5 ENE Polk07:00 AM00.630
IA-PT-2 Council Bluffs 3.4 NNE Pottawattamie07:00 AM000
IA-WR-7 Indianola 0.8 SSW Warren07:00 AM00.190
IA-WS-2 Ainsworth 7.4 N Washington07:00 AM00.160
IA-BH-7 Cedar Falls 1.4 SSE Black Hawk07:00 AM00.180
IA-HY-1 New London 1.5 SW Henry07:00 AM00.080
IA-CN-2 Calamus 2.0 NE Clinton07:00 AM00.110
IA-CL-2 Osceola 2.5 WSW Clarke07:00 AM00.050
IA-SR-17 Ames 0.9 ENE Story07:00 AM00 (1)0
IA-CW-2 New Hampton 0.4 SW Chickasaw07:00 AM00.390
IA-DM-7 Burlington 6.5 SSW Des Moines07:00 AM000
IA-WY-3 Seymour 1.7 W Wayne07:00 AM000
IA-PK-73 Des Moines 4.1 N Polk07:00 AM00.50
IA-HD-5 Eldora 1.2 ENE Hardin07:00 AM00.090
IA-DW-6 Hopkinton 5.4 WSW Delaware07:00 AM00.430
IA-KS-4 Algona 0.7 SE Kossuth07:00 AM00.130
IA-PA-5 West Bend 5.4 W Palo Alto07:00 AM00.190
IA-WH-5 Decorah 4.9SE Winneshiek07:00 AM00.520
IA-CR-7 Manning 0.2 ESE Carroll07:00 AM00.30
IA-BN-13 Madrid 5.8 NNW Boone07:00 AM00.220
IA-DV-2 Moulton 3.6 ENE Davis07:00 AM00.020
IA-DV-3 Bloomfield 8.6 SSW Davis07:00 AM00.220
IA-SR-33 Story City 1.5 SSE Story07:00 AM000
IA-CN-17 Charlotte 1.9 WNW Clinton07:00 AM00.150
IA-HR-16 Logan 0.8 WNW Harrison07:00 AM00.1500
IA-IA-18 Marengo 3.6 N Iowa07:00 AM00.170
IA-BC-8 Independence 0.9 WNW Buchanan07:00 AM00.20
IA-JH-22 Coralville 1.3 SE Johnson07:00 AM00.1800
IA-MC-13 Muscatine 2.1 N Muscatine07:00 AM00.1900
IA-DV-7 Bloomfield 4.2 WNW Davis07:00 AM00.140
IA-DV-10 Bloomfield 8.4 NNE Davis07:00 AM00.220
IA-WY-7 Allerton 5.1 E Wayne07:00 AM00.130
IA-WY-10 Allerton 0.8 S Wayne07:00 AM000
IA-SR-45 Ames 2.0 WNW Story07:00 AM00.170
IA-BT-16 Shellsburg 2.9 S Benton07:00 AM00.390
IA-LN-53 Robins 0.8 SE Linn07:00 AM00.320
IA-UN-5 Cromwell 0.1 S Union07:00 AM0000
IA-DB-23 Dubuque 1.0 SE Dubuque07:00 AM00.590
IA-DB-27 Dubuque 1.4 WNW Dubuque07:00 AM00.80
IA-MR-6 Lovilia 0.6 SSE Monroe07:00 AM00.0700
IA-PK-125 Urbandale 1.0 NNE Polk07:00 AM00.420
IA-JH-34 Iowa City 2.3 E Johnson07:00 AM00.180
IA-BN-15 IA-BN-15 Boone07:00 AM00.180
IA-SC-7 IA-SC-7 Sac07:00 AM00.160
IA-MD-6 IA-MD-6 Madison07:00 AM00.140
IA-BH-29 IA-BH-29 Black Hawk07:00 AM00.070
IA-PW-6 Malcom 7.7 NNW Poweshiek07:00 AM00.290
IA-ST-59 IA-ST-59 Scott07:00 AM00.160
IA-WP-13 IA-WP-13 Wapello07:00 AM00.140
IA-CG-13 IA-CG-13 Cerro Gordo07:00 AM00.140
IA-DC-8 IA-DC-8 Decatur07:00 AM00.020
IA-SX-12 Orange City 0.4 NNE Sioux07:00 AM00.20
IA-LN-62 IA-LN-62 Linn07:00 AM00.280
IA-DL-40 IA-DL-40 Dallas07:00 AM00.130
IA-JH-39 IA-JH-39 Johnson07:00 AM00
IA-AP-12 Plano 2.6 SSE Appanoose07:00 AM00.140
IA-CT-9 IA-CT-9 Clayton06:55 AM00.520
IA-SR-51 IA-SR-51 Story06:55 AM00 (1)0
IA-TY-2 New Market 4.7 N Taylor06:45 AM00.030
IA-LN-59 IA-LN-59 Linn06:45 AM00.270
IA-AP-9 Numa 1.7 W Appanoose06:38 AM00.060
IA-CT-11 Monona 0.2 WNW Clayton06:30 AM00.430
IA-JF-13 Fairfield 0.4 SE Jefferson06:23 AM00.010
IA-WB-3 Fort Dodge 1.6 ENE Webster06:00 AM00.130
IA-CT-8 Elkader 6.8 WSW Clayton06:00 AM00.2200
IA-JH-37 Solon 0.4 WNW Johnson06:00 AM00.20
IA-JH-38 IA-JH-38 Johnson06:00 AM00.140
IA-CN-5 Camanche 1.2 W Clinton06:00 AM00.130
IA-PK-21 Johnston 3.7 NNW Polk06:00 AM00.2800
IA-CN-22 Clinton 1.7 NNW Clinton06:00 AM00.1100
IA-LN-3 Ely 0.5 SE Linn06:00 AM00.210
IA-DL-22 Waukee 1.2 ENE Dallas06:00 AM00.370
IA-LN-30 Center Point 0.6 NNW Linn06:00 AM00.350
IA-BT-11 Mount Auburn 2.2 NNW Benton06:00 AM00.20
IA-WS-7 Wellman 4.0 E Washington05:45 AM00.130
IA-VB-3 Farmington 3.5 W Van Buren05:30 AM00.1200
IA-VB-7 Farmington 0.3 NW Van Buren05:30 AM00.100
IA-VB-8 Farmington 2.4 W Van Buren05:30 AM00.1100
IA-VB-9 Farmington 0.4 NNW Van Buren05:30 AM00.0900
IA-PL-9 IA-PL-9 Plymouth05:30 AM00.290
IA-LN-27 Marion 1.7 NNW Linn05:28 AM00.230
IA-ID-4 Arthur 3.7 SSW Ida05:15 AM00.270
IA-CL-9 Osceola 2.5 N Clarke05:15 AM00.050
IA-WB-17 Fort Dodge 1.7 NNW Webster05:00 AM00.2400
IA-HM-4 Webster City 0.8 SSW Hamilton04:55 AM00.420
IA-IA-13 Parnell 0.1 SSW Iowa04:52 AM00.20
IA-PK-68 Clive 1.2 E Polk20 Feb 2024 10:00 AMM0.53M
IA-ML-6 Glenwood 1.7 WSW Mills20 Feb 2024 09:00 AMM0M
IA-SR-42 Ames 2.1 WNW Story20 Feb 2024 09:00 AMM0.1M
IA-PG-3 College Springs 0.3 NNW Page20 Feb 2024 08:00 AMM0M
IA-CW-5 Fredericksburg 0.3 S Chickasaw20 Feb 2024 08:00 AMM0.47M
IA-SR-12 Ames 2.1 N Story20 Feb 2024 08:00 AMM0.1M
IA-MR-5 Albia 2.9 N Monroe20 Feb 2024 08:00 AMM0.09M
IA-JS-9 Newton 1.2 WSW Jasper20 Feb 2024 08:00 AMM0M
IA-CH-7 IA-CH-7 Calhoun20 Feb 2024 08:00 AMM0.13 (2)M
IA-KS-5 Burt 0.5 NW Kossuth20 Feb 2024 07:00 AMM0.17M
IA-KS-6 Swea City 4.0 NW Kossuth20 Feb 2024 07:00 AMM0.14M
IA-SX-14 Orange City 1.2 SSE Sioux20 Feb 2024 07:00 AMM0.13M
IA-PK-95 Des Moines 3.7 NW Polk20 Feb 2024 07:00 AMM0.61M
IA-PK-36 Madrid 6.4 S Polk20 Feb 2024 07:00 AMM0.29M
IA-LN-7 Central City 6.7 W Linn20 Feb 2024 07:00 AMM0.45M
IA-ST-3 Park View 0.2 WSW Scott20 Feb 2024 07:00 AMM0.17M
IA-PW-4 Grinnell 0.6 NW Poweshiek20 Feb 2024 07:00 AMM0.27M
IA-DV-9 Bloomfield 4.3 SSW Davis20 Feb 2024 07:00 AMM0.1M
IA-AL-7 Harpers Ferry 6.4 SSW Allamakee20 Feb 2024 07:00 AMM0.27M
IA-DL-34 Adel 0.6 SE Dallas20 Feb 2024 07:00 AMM0.33M
IA-SH-8 Earling 2.4 SE Shelby20 Feb 2024 07:00 AMM0.05M
IA-BN-3 Ogden 1.6 SE Boone20 Feb 2024 05:00 AMM0.12M
IA-DC-9 IA-DC-9 Decatur19 Feb 2024 08:00 AMM0.03M
IA-LS-3 Wapello 0.2 S Louisa19 Feb 2024 07:00 AMM0M
IA-DM-15 Yarmouth 1.9 SW Des Moines19 Feb 2024 07:00 AMM0.1M
IA-TM-4 Vining 0.2 ENE Tama19 Feb 2024 07:00 AMM0.22M
IA-PK-83 Altoona 1.5 SSE Polk19 Feb 2024 07:00 AMM0.57M
IA-PC-10 Pocahontas 0.5 W Pocahontas19 Feb 2024 07:00 AMM0.09 (1)M
IA-LN-40 Cedar Rapids 2.8 NNE Linn18 Feb 2024 07:00 PMM0 (1)M
IA-DC-7 IA-DC-7 Decatur18 Feb 2024 09:30 AMM0.15M
IA-JH-14 Swisher 0.4 NNE Johnson18 Feb 2024 08:50 AMM0.27M
IA-MC-20 Muscatine 3.0 NE Muscatine18 Feb 2024 08:00 AMM0.18M
IA-BH-3 Cedar Falls 0.4 WNW Black Hawk18 Feb 2024 07:00 AMM0.13M
IA-SX-7 Sioux Center 2.6 N Sioux18 Feb 2024 07:00 AMM0.09M
IA-SR-34 Nevada 4.6 S Story18 Feb 2024 07:00 AMM0 (1)M
IA-WS-8 Washington 5.8 SW Washington18 Feb 2024 07:00 AMM0.13M
IA-JS-10 Sully 0.3 ESE Jasper18 Feb 2024 06:00 AMM0.15 (1)M
IA-JC-5 Bellevue 0.3 SSW Jackson17 Feb 2024 08:00 AMM0 (1)M
IA-AP-11 Melrose 6.8 SSE Appanoose17 Feb 2024 08:00 AMM0.08M
IA-DC-5 IA-DC-5 Decatur17 Feb 2024 08:00 AMM0.09M
IA-GN-8 Jefferson 0.1 ENE Greene17 Feb 2024 08:00 AMM0.16M
IA-DM-18 Danville 2.9 W Des Moines17 Feb 2024 07:00 AMM0.12M
IA-ST-42 Riverdale 0.5 N Scott17 Feb 2024 07:00 AMM0.12M
IA-DL-26 Dallas Center 4.1 ENE Dallas17 Feb 2024 07:00 AMM0.39M
IA-WG-6 Eagle Grove 1.3 WSW Wright17 Feb 2024 07:00 AMM0.22M
IA-ML-5 Pacific Junction 3.9 N Mills17 Feb 2024 07:00 AMM0M
IA-JF-12 Fairfield 5.7 NNE Jefferson17 Feb 2024 07:00 AMM0.15M
IA-LE-16 Keokuk 3.4 NW Lee17 Feb 2024 06:00 AMM0.13M
IA-HY-5 Salem 3.1 ESE Henry16 Feb 2024 08:00 AMM0.04M
IA-LE-11 West Point 7.5 NW Lee16 Feb 2024 08:00 AMM0.05M
IA-PK-54 Polk City 0.4 W Polk16 Feb 2024 08:00 AMM0 (1)M
IA-LY-9 Larchwood 1.2 NNE Lyon16 Feb 2024 08:00 AMM0.14M
IA-HR-4 Persia 2.0 S Harrison16 Feb 2024 07:00 AMM0.15M
IA-GT-1 Jamaica 3.2 S Guthrie16 Feb 2024 07:00 AMM0.14M
IA-CS-5 Atlantic 7.1 NNE Cass16 Feb 2024 07:00 AMM0.13M
IA-CF-2 Schleswig 0.4 NE Crawford16 Feb 2024 07:00 AMM0.24M
IA-DK-3 Lake Park 3.2 SSE Dickinson16 Feb 2024 07:00 AMM0.3M
IA-PK-93 Johnston 2.6 W Polk16 Feb 2024 07:00 AMM0.39M
IA-SR-47 IA-SR-47 Story16 Feb 2024 07:00 AMM0.14M
IA-MD-3 Earlham 2.0 W Madison16 Feb 2024 07:00 AMM0.21 (1)M
IA-DV-8 Bloomfield 6.5 E Davis16 Feb 2024 07:00 AMM0.07M
IA-PK-115 Polk City 1.0 N Polk16 Feb 2024 06:35 AMM0.23M
IA-BN-18 Madrid 5.4 NNW Boone16 Feb 2024 06:30 AMM0 (1)M
IA-LC-10 Williamson 0.3 N Lucas16 Feb 2024 06:00 AMM0M
IA-PK-108 Des Moines 5.0 NNW Polk15 Feb 2024 09:00 AMM0.25M
IA-ST-58 IA-ST-58 Scott15 Feb 2024 07:30 AMM0.19M
IA-AL-3 Monona 9.7 N Allamakee15 Feb 2024 07:00 AMM0.69M
IA-DK-11 Spirit Lake 1.7 SW Dickinson15 Feb 2024 07:00 AMM0 (1)M
IA-CD-10 Clarence 3.9 S Cedar15 Feb 2024 07:00 AMM0.23M
IA-WB-12 Fort Dodge 5.6 WNW Webster15 Feb 2024 07:00 AMM0.21M
IA-MA-13 Marion 1.6 WNW Linn15 Feb 2024 07:00 AMM0.3M
IA-DB-29 Holy Cross 1.8 E Dubuque15 Feb 2024 07:00 AMM0.61M
IA-CN-20 De Witt 5.4 ENE Clinton15 Feb 2024 07:00 AMM0.12M
IA-DB-21 Rickardsville 0.2 W Dubuque15 Feb 2024 06:00 AMM0.67M
IA-LN-31 Cedar Rapids 2.7 NE Linn15 Feb 2024 06:00 AMM0.18M
IA-ST-48 Bettendorf 1.6 W Scott14 Feb 2024 07:30 AMM0M
IA-PK-139 Ankeny 2.3 NE Polk14 Feb 2024 07:00 AMM0M